INTELSAT 33E DEB, 64398

Orbit data source: Space-Track

INTELSAT 33E DEB, 64398 is space debris in GEO originally from a launch on Wed, 24 Aug 2016 UTC launched from the French Guiana (FRGUI). Debris objects in space refer to the collection of defunct objects orbiting the Earth. Examples of debris include non-operational satellites, rocket bodies, and fragments generated from explosions, collisions, or faulty payload assembly.

Loading next visibility...
Identifier
64398, 2016-053AC
Orbit
GEO
Country
Flag of UnknownUnknown / ITSO
Related business
Manufacturer
Boeing/ES
Mission
Spacecraft
Bus & Motor
Unknown
Mass
Unknown
Launch date (UTC)
2016-08-24 (9 years ago)
Launch vehicle
Unknown
Launch site
French Guiana (FRGUI)
Object type
Payload
Rocket body
Debris
Shape & HBR
Unknown shape, 1.1 m
Radar Cross Section
RCS unknown

Expand to show TLE details & history
Last TLE update: 1 day ago

TLE from 1 day ago
0 INTELSAT 33E DEB
1 64398U 16053AC  25295.18039302 -.00000218  00000-0  00000-0 0  9996
2 64398   0.9404  37.4796 0071672 338.5025 344.2775  1.00979236  3613
Epoch: 2025-10-22T04:19Z
TLE epoch observation values (Epoch: 2025-10-22T04:19:45.956Z)
Latitude
-0.55176°
Longitude
-95.79553°
Altitude
35,298.47 km
Speed
3.103 km/s
True Right ascension
00h 00m 00s
True Declination
0° 33' 04"
Sunlit
Object was in daylight at epoch
Visualization orbit readout
Latitude
Unknown
Longitude
Unknown
Altitude
Unknown
Speed
Unknown
Apparent Right ascension
Unknown
Apparent Declination
Unknown
Sunlit
N/A
Visualization observer readout
Local Sidereal Time
10:20:41
Azimuth
Unknown
Elevation
Unknown
Doppler factor
Unknown
Orbital elements
Apogee altitude
35,891.302 km
Perigee altitude
35,289.707 km
Semi-major axis
41,968.641 km
Eccentricity
0.00717
Inclination
0.9404°
RAAN
37.4796°
Arg. of periapsis
338.5025°
True anomaly
344.05301°
Mean anomaly
344.2775°
Eccentric anomaly
344.16545°
Mean motion
0.25244 °/min
Orbital period
1,426.09 mins
BSTAR
0
Loading maneuver chart data...
Computing Atmospheric mass density...
Loading historical data...
Loading historical data...
Loading historical data...
Loading historical data...
Loading historical data...
Loading historical data...
Loading historical data...

Documentation

Showing up to 5 results
|